Retour au catalogue

SARAMAGO

ActifCommunicationsSSO
NORAD 100000·PAYLOAD·🇵🇹 Portugal

Lancé Mar 30, 2026 depuis Vandenberg Space Force Base

Loading…

Prochains Passages (prochaines 24 heures)

TLE

FraisSource: Space-Track

Époque: Sep 14, 2026, 03:49 UTC

1 A0000U 26067CY  26257.15968170  .00007343  00000-0  33071-3 0  9994
2 A0000  97.4677 214.7781 0009612  63.9156 296.3068 15.21322772 25227

Suivez SARAMAGO en temps réel avec AllMySat

Download on the App Store